Spearfish, SD

11:02 PM MDT on June 24, 2017 (GMT -0600)
Black Hills-Ice

Weather History for KSPF - January, 2013

Change the Weather History Date:

Friday, January 11, 2013

  Actual Average (KEFC) Record (KEFC)
Temperature  
Mean Temperature 16 °F -  
Max Temperature 28 °F 29 °F 67 °F (1953)
Min Temperature 3 °F 5 °F -26 °F (1974)
Degree Days  
Heating Degree Days 50    
Moisture  
Dew Point 9 °F    
Average Humidity 84    
Maximum Humidity 100    
Minimum Humidity 67    
Precipitation  
Precipitation 3.48 in - - ()
Sea Level Pressure  
Sea Level Pressure 29.60 in    
Wind  
Wind Speed 16 mph (NW)    
Max Wind Speed 30 mph    
Max Gust Speed 43 mph    
Visibility 5 miles    
Events Fog , Snow    
Averages and records for this station are not official NWS values.
T = Trace of Precipitation, MM = Missing Value Source: NWS Daily Summary

Daily Weather History Graph

Daily Weather History Graph

Search for Another Location

Airport or City:

Trip Planner

Search our weather history database for the weather conditions in past years. The results will help you decide how hot, cold, wet, or windy it might be!

Date:

Astronomy

Jan. 11, 2013 Rise Set
Actual Time 8:29 AM CST 5:36 PM CST
Civil Twilight 7:57 AM CST 6:09 PM CST
Nautical Twilight 7:20 AM CST 6:45 PM CST
Astronomical Twilight 6:45 AM CST 7:20 PM CST
Moon 8:02 AM CST (1/11) 6:00 PM CST (1/11)
Length of Visible Light 10h 12m
Length of Day
9h 07m
Waning Crescent, 0% of the Moon is Illuminated
Jan 11
Waning Crescent
Jan 11
New
Jan 18
First Quarter
Jan 26
Full
Feb 3
Last Quarter

Hourly Weather History & Observations

Time (CST) Temp. Windchill Dew Point Humidity Pressure Visibility Wind Dir Wind Speed Gust Speed Precip Events Conditions
12:15 AM 28.4 °F 22.2 °F 26.6 °F 93% 29.50 in 0.8 mi WNW 5.8 mph - N/A   Overcast
12:55 AM 28.4 °F 21.2 °F 28.4 °F 100% 29.52 in 9.0 mi WNW 6.9 mph - N/A   Overcast
1:15 AM 26.6 °F 17.5 °F 26.6 °F 100% 29.52 in 1.0 mi NW 9.2 mph 16.1 mph N/A   Overcast
1:35 AM 26.6 °F 15.2 °F 26.6 °F 100% 29.52 in 0.2 mi NNW 13.8 mph 17.3 mph N/A Fog Light Freezing Fog
1:55 AM 26.6 °F 15.2 °F 24.8 °F 93% 29.52 in 0.2 mi NNW 13.8 mph - N/A Fog Light Freezing Fog
2:15 AM 24.8 °F 13.4 °F 24.8 °F 100% 29.53 in 0.2 mi NNW 12.7 mph - N/A Fog Light Freezing Fog
2:35 AM 24.8 °F 13.4 °F 23.0 °F 93% 29.54 in 0.5 mi NW 12.7 mph - N/A Fog Light Freezing Fog
2:55 AM 23.0 °F 13.9 °F 23.0 °F 100% 29.54 in 3.0 mi NW 8.1 mph - N/A   Overcast
3:15 AM 23.0 °F 10.6 °F 23.0 °F 100% 29.54 in 3.0 mi NW 13.8 mph 18.4 mph N/A   Overcast
3:35 AM 23.0 °F 11.1 °F 23.0 °F 100% 29.53 in 4.0 mi NW 12.7 mph - N/A   Overcast
3:55 AM 23.0 °F 11.1 °F 21.2 °F 93% 29.51 in 1.8 mi NW 12.7 mph 18.4 mph N/A   Overcast
4:15 AM 23.0 °F 11.7 °F 21.2 °F 93% 29.51 in 1.5 mi NW 11.5 mph - N/A   Overcast
4:55 AM 21.2 °F 6.8 °F 19.4 °F 93% 29.49 in 5.0 mi WNW 17.3 mph - N/A   Overcast
5:15 AM 21.2 °F 7.8 °F 19.4 °F 93% 29.50 in 6.0 mi WNW 15.0 mph 21.9 mph N/A   Overcast
5:35 AM 19.4 °F 4.5 °F 19.4 °F 100% 29.49 in 8.0 mi WNW 17.3 mph 24.2 mph N/A   Mostly Cloudy
5:55 AM 19.4 °F 4.1 °F 17.6 °F 93% 29.49 in 5.0 mi NW 18.4 mph - N/A   Overcast
6:15 AM 19.4 °F 4.5 °F 17.6 °F 93% 29.50 in 9.0 mi NW 17.3 mph 25.3 mph N/A   Overcast
6:55 AM 17.6 °F 1.7 °F 15.8 °F 93% 29.51 in 8.0 mi NW 18.4 mph 27.6 mph N/A   Overcast
7:15 AM 17.6 °F 1.3 °F 15.8 °F 93% 29.52 in 5.0 mi NW 19.6 mph 24.2 mph N/A   Overcast
7:35 AM 17.6 °F 2.2 °F 15.8 °F 93% 29.53 in 5.0 mi NW 17.3 mph 24.2 mph N/A Snow Light Snow
7:55 AM 17.6 °F 2.7 °F 15.8 °F 93% 29.53 in 3.0 mi NW 16.1 mph 24.2 mph N/A Snow Light Snow
8:15 AM 15.8 °F -0.6 °F 14.0 °F 93% 29.54 in 10.0 mi NW 18.4 mph 24.2 mph N/A   Mostly Cloudy
8:35 AM 14.0 °F -3.9 °F 12.2 °F 93% 29.55 in 10.0 mi NW 20.7 mph 25.3 mph N/A   Scattered Clouds
8:55 AM 14.0 °F -3.0 °F 10.4 °F 86% 29.55 in 10.0 mi WNW 18.4 mph 25.3 mph N/A Snow Light Snow
9:15 AM 14.0 °F -2.5 °F 10.4 °F 86% 29.56 in 10.0 mi NW 17.3 mph 25.3 mph N/A Snow Light Snow
9:35 AM 14.0 °F -1.4 °F 10.4 °F 86% 29.56 in 10.0 mi WNW 15.0 mph 21.9 mph N/A Snow Light Snow
9:55 AM 14.0 °F -3.0 °F 10.4 °F 86% 29.57 in 9.0 mi NW 18.4 mph 24.2 mph 0.01 in Snow Light Snow
10:15 AM 12.2 °F -3.7 °F 10.4 °F 92% 29.59 in 3.0 mi WNW 15.0 mph 21.9 mph 0.03 in Snow Light Snow
10:35 AM 12.2 °F -2.5 °F 8.6 °F 85% 29.59 in 1.2 mi NW 12.7 mph 20.7 mph 0.18 in Snow Light Snow
10:55 AM 12.2 °F -4.3 °F 8.6 °F 85% 29.60 in 0.8 mi NW 16.1 mph 21.9 mph 0.52 in Snow Light Snow
11:35 AM 10.4 °F -6.0 °F 8.6 °F 92% 29.59 in 1.0 mi WNW 15.0 mph - 0.51 in Snow Light Snow
11:55 AM 10.4 °F -8.6 °F 8.6 °F 92% 29.59 in 1.0 mi WNW 20.7 mph 27.6 mph 1.03 in Snow Light Snow
12:15 PM 10.4 °F -9.1 °F 8.6 °F 92% 29.58 in 1.2 mi WNW 21.9 mph 31.1 mph 0.19 in Snow Light Snow
12:35 PM 10.4 °F -6.6 °F 6.8 °F 85% 29.58 in 6.0 mi WNW 16.1 mph 27.6 mph 0.26 in Snow Light Snow
12:55 PM 10.4 °F -8.2 °F 6.8 °F 85% 29.57 in 3.0 mi WNW 19.6 mph 26.5 mph 0.31 in Snow Light Snow
1:15 PM 10.4 °F -7.2 °F 6.8 °F 85% 29.57 in 3.0 mi NW 17.3 mph 23.0 mph 0.04 in Snow Light Snow
1:35 PM 10.4 °F -6.6 °F 5.0 °F 79% 29.57 in 3.0 mi WNW 16.1 mph 26.5 mph 0.09 in Snow Light Snow
1:55 PM 10.4 °F -7.2 °F 5.0 °F 79% 29.57 in 2.5 mi WNW 17.3 mph 28.8 mph 0.15 in Snow Light Snow
2:15 PM 10.4 °F -8.6 °F 5.0 °F 79% 29.57 in 7.0 mi NW 20.7 mph 33.4 mph 0.01 in Snow Light Snow
2:35 PM 10.4 °F -8.6 °F 3.2 °F 73% 29.58 in 8.0 mi WNW 20.7 mph 33.4 mph 0.01 in Snow Light Snow
2:55 PM 10.4 °F -9.9 °F 5.0 °F 79% 29.59 in 5.0 mi WNW 24.2 mph 29.9 mph 0.03 in Snow Light Snow
3:15 PM 10.4 °F -9.1 °F 5.0 °F 79% 29.60 in 5.0 mi WNW 21.9 mph 28.8 mph N/A Snow Light Snow
3:35 PM 10.4 °F -9.1 °F 3.2 °F 73% 29.61 in 4.0 mi WNW 21.9 mph 35.7 mph 0.03 in Snow Light Snow
3:55 PM 10.4 °F -8.2 °F 1.4 °F 67% 29.62 in 4.0 mi WNW 19.6 mph 33.4 mph 0.07 in Snow Light Snow
4:15 PM 10.4 °F -10.7 °F 3.2 °F 73% 29.63 in 5.0 mi WNW 26.5 mph 34.5 mph 0.01 in Snow Light Snow
4:35 PM 8.6 °F -13.1 °F 1.4 °F 73% 29.64 in 9.0 mi WNW 26.5 mph 35.7 mph 0.02 in Snow Light Snow
4:55 PM 8.6 °F -9.5 °F -0.4 °F 67% 29.65 in 10.0 mi WNW 17.3 mph 34.5 mph 0.02 in Snow Light Snow
5:15 PM 8.6 °F -11.4 °F 1.4 °F 73% 29.65 in 10.0 mi WNW 21.9 mph 32.2 mph N/A Snow Light Snow
5:35 PM 8.6 °F -13.1 °F -0.4 °F 67% 29.67 in 10.0 mi WNW 26.5 mph 35.7 mph N/A Snow Light Snow
5:55 PM 8.6 °F -10.0 °F -0.4 °F 67% 29.67 in 10.0 mi WNW 18.4 mph 34.5 mph 0.01 in Snow Light Snow
6:15 PM 8.6 °F -11.0 °F -0.4 °F 67% 29.68 in 10.0 mi WNW 20.7 mph 33.4 mph N/A Snow Light Snow
6:35 PM 8.6 °F -12.7 °F -0.4 °F 67% 29.68 in 10.0 mi WNW 25.3 mph 38.0 mph 0.01 in Snow Light Snow
6:55 PM 6.8 °F -15.5 °F -0.4 °F 72% 29.69 in 10.0 mi WNW 26.5 mph 41.4 mph 0.01 in Snow Light Snow
7:15 PM 6.8 °F -15.5 °F -0.4 °F 72% 29.69 in 5.0 mi WNW 26.5 mph 33.4 mph 0.02 in Snow Light Snow
7:35 PM 6.8 °F -14.3 °F -0.4 °F 72% 29.69 in 3.0 mi WNW 23.0 mph 31.1 mph 0.11 in Snow Light Snow
7:55 PM 6.8 °F -13.8 °F 1.4 °F 79% 29.70 in 1.8 mi WNW 21.9 mph 29.9 mph 0.33 in Snow Light Snow
8:15 PM 6.8 °F -15.5 °F -0.4 °F 72% 29.70 in 1.8 mi WNW 26.5 mph 35.7 mph 0.16 in Snow Light Snow
8:35 PM 5.0 °F -18.3 °F -0.4 °F 78% 29.71 in 1.8 mi WNW 27.6 mph 40.3 mph 0.28 in Snow Light Snow
8:55 PM 5.0 °F -16.7 °F -0.4 °F 78% 29.72 in 2.5 mi WNW 23.0 mph 29.9 mph 0.37 in Snow Light Snow
9:15 PM 5.0 °F -16.7 °F -0.4 °F 78% 29.73 in 2.0 mi WNW 23.0 mph 29.9 mph 0.10 in Snow Light Snow
9:35 PM 5.0 °F -16.7 °F -0.4 °F 78% 29.73 in 3.0 mi WNW 23.0 mph 32.2 mph 0.23 in Snow Light Snow
9:55 PM 5.0 °F -19.0 °F -2.2 °F 72% 29.74 in 3.0 mi WNW 29.9 mph 38.0 mph 0.35 in Snow Light Snow
10:15 PM 5.0 °F -17.1 °F -2.2 °F 72% 29.74 in 2.5 mi WNW 24.2 mph 41.4 mph 0.05 in Snow Light Snow
10:35 PM 5.0 °F -17.9 °F -2.2 °F 72% 29.75 in 1.8 mi WNW 26.5 mph 42.6 mph 0.14 in Snow Light Snow
10:55 PM 3.2 °F -19.9 °F -2.2 °F 78% 29.76 in 2.5 mi WNW 25.3 mph 36.8 mph 0.20 in Snow Light Snow
11:15 PM 3.2 °F -19.9 °F -2.2 °F 78% 29.77 in 4.0 mi WNW 25.3 mph 34.5 mph 0.02 in Snow Light Snow
11:35 PM 3.2 °F -18.6 °F -2.2 °F 78% 29.78 in 4.0 mi WNW 21.9 mph 29.9 mph 0.04 in Snow Light Snow
11:55 PM 3.2 °F -20.7 °F -2.2 °F 78% 29.79 in 4.0 mi WNW 27.6 mph 35.7 mph 0.07 in Snow Light Snow